Weather in Iki-Bukhus

Russia / Republic of Kalmykia     48°02′33″N   45°13′07″E
temp.,
°C
wind,
m/s
gust,
m/s
humid.,
%
clouds,
%
prec.,
mm/h
press.,
hPa
HPBL,
m
25 july, sun
sun2500:00+24e01360 0.0 101312
03:00+22e334227 0.0 101442
06:00+23ene24470 0.0 1015140
09:00+28e33330 0.0 1016806
12:00+31ese21252 0.0 10162906
15:00+32sse01225 0.0 10163205
18:00+32s012233 0.0 10163115
21:00+27ne712365 0.0 1017395
26 july, mon
mon2600:00+26ene6113763 0.0 1018394
03:00+24ne484197 0.0 1019190
06:00+24ene594065 0.0 1020292
09:00+29e66285 0.0 1020923
12:00+32ese442415 0.0 10192280
15:00+33ene432393 0.0 10182952
18:00+31ene76265 0.0 10181368
21:00+27ene6113199 0.0 1019412
27 july, tue
tue2700:00+26e51030100 0.0 1019419
03:00+24ene3334100 0.0 102057
06:00+24e3533100 0.0 1020148
09:00+27se222687 0.0 1021745
12:00+30wnw122386 0.0 10192287
15:00+31wnw242198 0.0 10173200
18:00+30n782538 0.0 10171145
21:00+26nne611270 0.0 1018331
28 july, wed
wed2800:00+23nne4932100 0.0 1018182
03:00+22nne47360 0.0 1018122
06:00+22nne36394 0.0 1019184
09:00+27ne45270 0.0 10181489
12:00+30nne33240 0.0 10172898
15:00+31nne34212 0.0 10163187
18:00+30ene44227 0.0 10162939
21:00+27sse332777 0.0 101622
29 july, thu
thu2900:00+25sw22305 0.0 101511
03:00+24w223120 0.0 101413
06:00+25w233383 0.0 101565
09:00+30wsw2224100 0.0 1014944
12:00+32ssw33195 0.0 10132912
15:00+33sw331730 0.0 10123146
18:00+33wsw23185 0.0 10112818
21:00+29s33225 0.0 101130